sat.trackr.live / text

‹ back to catalog

GEESAT-3 09

NORAD 61019 · 2024-159J

PAYLOAD ACTIVE UNKNOWN

§ Identity

Operator
Country
PRC
Launch date
2024-09-05
Launch site
TAISC
Launch vehicle
Mass (kg)
RCS (m²)

External: N2YO · Heavens-Above · Gunter

§ Orbital elements

Epoch: 2026-05-25T03:58:31.768608Z

Period
97.02 min
Inclination
49.9965°
Eccentricity
0.0022642
Mean motion
14.84155695 rev/d
Perigee alt
600.4 km
Apogee alt
632.1 km
Semi-major
6,994.4 km
B*
1.8104e-4
RAAN
189.4759°
Arg perigee
330.6712°
Mean anomaly
29.2954°
Rev number
9,335

§ Raw data

GEESAT-3 091 61019U 24159J   26145.16564547  .00001303  00000+0  18104-3 0  99972 61019  49.9965 189.4759 0022642 330.6712  29.2954 14.84155695 93351

JSON: /api/v1/satellites/61019 · /tle

For live sub-satellite position, see the globe view (requires WebGL).

§ Visibility from observer

Set your observer location to see the next 7 days of passes ≥ 10°. The values pass through the URL so the page stays shareable.

No JS? Fill the form by hand. The geolocation button needs JavaScript.